Weather History for Socorro, NM

Change the Weather History Date:

Thursday, October 25, 2012

  Actual Average Record
Temperature  
Mean Temperature 56 °F -  
Max Temperature 66 °F 70 °F 79 °F (2010)
Min Temperature 46 °F 35 °F 46 °F (2012)
Degree Days  
Heating Degree Days 9    
Growing Degree Days 6 (Base 50)    
Moisture  
Dew Point 18 °F    
Average Humidity 22    
Maximum Humidity 34    
Minimum Humidity 14    
Precipitation  
Precipitation 0.00 in - - ()
Sea Level Pressure  
Sea Level Pressure 30.07 in    
Wind  
Wind Speed 12 mph (NNW)    
Max Wind Speed 22 mph    
Max Gust Speed 26 mph    
Visibility 10 miles    
Events      
Averages and records for this station are not official NWS values.
T = Trace of Precipitation, MM = Missing Value Source: NWS Daily Summary

Daily Weather History Graph

Daily Weather History Graph

Search for Another Location

Airport:

Trip Planner

Search our weather history database for the weather conditions in past years. The results will help you decide how hot, cold, wet, or windy it might be!

Date:

Astronomy

Oct. 25, 2012 Rise Set
Actual Time 7:21 AM MDT 6:21 PM MDT
Civil Twilight 6:55 AM MDT 6:46 PM MDT
Nautical Twilight 6:26 AM MDT 7:16 PM MDT
Astronomical Twilight 5:57 AM MDT 7:45 PM MDT
Moon 4:00 PM MDT (10/25) 3:30 AM MDT (10/25)
Length of Visible Light 11h 50m
Length of Day
10h 59m
Waxing Gibbous, 85% of the Moon is Illuminated
Oct 25
Waxing Gibbous
Oct 29
Full
Nov 6
Last Quarter
Nov 13
New
Nov 20
First Quarter

Hourly Weather History & Observations

Time (MDT) Temp. Dew Point Humidity Pressure Visibility Wind Dir Wind Speed Gust Speed Precip Events Conditions
12:15 AM 66.9 °F 16.5 °F 14% 29.94 in 10.0 mi North 11.5 mph 23.0 mph N/A   Clear
12:35 AM 62.6 °F 23.5 °F 23% 29.95 in 10.0 mi NNE 13.8 mph 21.9 mph N/A   Clear
12:55 AM 62.4 °F 22.8 °F 22% 29.95 in 10.0 mi North 13.8 mph - N/A   Clear
1:15 AM 62.1 °F 23.0 °F 22% 29.96 in 10.0 mi NNE 16.1 mph 21.9 mph N/A   Clear
1:35 AM 62.1 °F 22.1 °F 22% 29.98 in 10.0 mi North 15.0 mph - N/A   Clear
1:55 AM 61.0 °F 21.2 °F 22% 29.99 in 10.0 mi North 12.7 mph 18.4 mph N/A   Clear
2:15 AM 60.6 °F 19.4 °F 20% 29.98 in 10.0 mi North 19.6 mph 24.2 mph N/A   Clear
2:35 AM 60.8 °F 17.2 °F 18% 30.00 in 10.0 mi NNW 13.8 mph - N/A   Clear
2:55 AM 59.4 °F 18.0 °F 20% 30.01 in 10.0 mi NNW 11.5 mph 17.3 mph N/A   Clear
3:15 AM 59.0 °F 16.5 °F 19% 30.01 in 10.0 mi NNW 16.1 mph 21.9 mph N/A   Clear
3:35 AM 55.9 °F 18.9 °F 24% 30.01 in 10.0 mi NNW 18.4 mph 23.0 mph N/A   Clear
3:55 AM 55.6 °F 18.1 °F 23% 30.00 in 10.0 mi NNW 19.6 mph 24.2 mph N/A   Clear
4:15 AM 55.2 °F 18.9 °F 24% 30.02 in 10.0 mi NNW 21.9 mph 26.5 mph N/A   Clear
4:35 AM 55.4 °F 19.0 °F 24% 30.03 in 10.0 mi NNW 19.6 mph 25.3 mph N/A   Clear
4:55 AM 54.5 °F 18.9 °F 25% 30.05 in 10.0 mi NNW 17.3 mph 23.0 mph N/A   Clear
5:35 AM 51.3 °F 19.8 °F 29% 30.08 in 10.0 mi North 11.5 mph - N/A   Clear
5:55 AM 49.3 °F 21.6 °F 34% 30.09 in 10.0 mi NNW 12.7 mph - N/A   Clear
6:35 AM 48.6 °F 20.8 °F 34% 30.10 in 10.0 mi NNW 17.3 mph 23.0 mph N/A   Clear
6:55 AM 48.2 °F 20.3 °F 33% 30.11 in 10.0 mi NNW 15.0 mph - N/A   Clear
7:15 AM 47.5 °F 19.6 °F 33% 30.12 in 10.0 mi NNW 16.1 mph 21.9 mph N/A   Clear
7:35 AM 46.6 °F 19.8 °F 34% 30.12 in 10.0 mi NNW 13.8 mph - N/A   Clear
8:15 AM 47.3 °F 20.1 °F 34% 30.14 in 10.0 mi NNW 12.7 mph - N/A   Clear
8:35 AM 47.8 °F 20.3 °F 34% 30.15 in 10.0 mi NNW 11.5 mph - N/A   Clear
8:55 AM 49.8 °F 20.8 °F 32% 30.15 in 10.0 mi NNW 12.7 mph - N/A   Clear
9:15 AM 51.1 °F 21.0 °F 31% 30.15 in 10.0 mi North 16.1 mph 21.9 mph N/A   Clear
9:55 AM 55.0 °F 20.5 °F 26% 30.14 in 10.0 mi North 18.4 mph 23.0 mph N/A   Clear
10:55 AM 58.5 °F 21.2 °F 24% 30.13 in 10.0 mi North 15.0 mph 25.3 mph N/A   Clear
11:15 AM 60.6 °F 18.5 °F 20% 30.13 in 10.0 mi North 17.3 mph 25.3 mph N/A   Clear
11:35 AM 61.0 °F 17.2 °F 18% 30.13 in 10.0 mi North 16.1 mph 23.0 mph N/A   Clear
11:55 AM 61.5 °F 19.6 °F 20% 30.12 in 10.0 mi NNE 15.0 mph 26.5 mph N/A   Clear
12:15 PM 62.4 °F 16.7 °F 17% 30.11 in 10.0 mi North 15.0 mph 24.2 mph N/A   Clear
12:35 PM 63.7 °F 18.0 °F 17% 30.11 in 10.0 mi North 13.8 mph 23.0 mph N/A   Clear
12:55 PM 63.1 °F 18.9 °F 18% 30.10 in 10.0 mi NNE 15.0 mph 21.9 mph N/A   Clear
1:15 PM 64.9 °F 18.5 °F 17% 30.09 in 10.0 mi NNE 13.8 mph 19.6 mph N/A   Clear
1:35 PM 64.6 °F 18.0 °F 17% 30.08 in 10.0 mi NE 10.4 mph 18.4 mph N/A   Clear
2:15 PM 65.8 °F 17.8 °F 16% 30.07 in 10.0 mi NNE 9.2 mph - N/A   Clear
2:35 PM 65.3 °F 17.2 °F 16% 30.06 in 10.0 mi North 6.9 mph - N/A   Clear
2:55 PM 66.7 °F 17.6 °F 15% 30.06 in 10.0 mi North 8.1 mph - N/A   Clear
3:15 PM 66.6 °F 17.6 °F 15% 30.05 in 10.0 mi NE 6.9 mph - N/A   Clear
3:35 PM 65.7 °F 17.2 °F 16% 30.05 in 10.0 mi NNE 3.5 mph - N/A   Clear
3:55 PM 66.7 °F 17.4 °F 15% 30.05 in 10.0 mi North 4.6 mph - N/A   Clear
4:15 PM 66.2 °F 16.7 °F 15% 30.05 in 10.0 mi Calm Calm - N/A   Clear
4:35 PM 66.2 °F 16.7 °F 15% 30.05 in 10.0 mi Calm Calm - N/A   Clear
4:55 PM 66.7 °F 17.2 °F 15% 30.04 in 10.0 mi Calm Calm - N/A   Clear
5:15 PM 66.0 °F 16.7 °F 15% 30.04 in 10.0 mi South 3.5 mph - N/A   Clear
5:35 PM 66.2 °F 17.1 °F 15% 30.04 in 10.0 mi SSW 5.8 mph - N/A   Clear
5:55 PM 65.5 °F 17.1 °F 16% 30.04 in 10.0 mi SSW 5.8 mph - N/A   Clear
6:15 PM 63.3 °F 16.5 °F 16% 30.03 in 10.0 mi SSW 6.9 mph - N/A   Clear
6:35 PM 60.6 °F 15.8 °F 17% 30.04 in 10.0 mi SSW 6.9 mph - N/A   Clear
6:55 PM 57.7 °F 15.8 °F 19% 30.04 in 10.0 mi SSW 6.9 mph - N/A   Clear
7:15 PM 57.2 °F 15.8 °F 20% 30.05 in 10.0 mi SSW 6.9 mph - N/A   Clear
7:35 PM 54.5 °F 15.6 °F 22% 30.06 in 10.0 mi SW 4.6 mph - N/A   Clear
7:55 PM 52.5 °F 15.4 °F 23% 30.07 in 10.0 mi West 4.6 mph - N/A   Clear
8:15 PM 54.0 °F 15.6 °F 22% 30.07 in 10.0 mi SSW 3.5 mph - N/A   Clear
8:55 PM 50.5 °F 15.4 °F 25% 30.08 in 10.0 mi WSW 4.6 mph - N/A   Clear
9:35 PM 50.9 °F 16.9 °F 26% 30.11 in 10.0 mi WNW 6.9 mph - N/A   Clear
9:55 PM 52.5 °F 16.9 °F 25% 30.11 in 10.0 mi NW 6.9 mph - N/A   Clear
10:15 PM 51.3 °F 17.4 °F 26% 30.12 in 10.0 mi Calm Calm - N/A   Clear
10:35 PM 50.9 °F 16.7 °F 26% 30.13 in 10.0 mi NNW 8.1 mph - N/A   Clear
10:55 PM 55.4 °F 11.3 °F 17% 30.12 in 10.0 mi NW 13.8 mph - N/A   Clear
11:15 PM 57.4 °F 11.1 °F 16% 30.12 in 10.0 mi NW 16.1 mph - N/A   Clear